Regional Weather Roundup
Issued by NWS

Home | Current Version | Previous Version | Graphics & Text | Print | Product List | Glossary On
Versions: 1 2 3 4 5 6 7 8 9 10 11 12 13 14 15 16 17 18 19 20 21 22 23 24 25 26 27 28 29 30 31 32 33 34 35 36 37 38 39 40 41 42 43 44 45 46 47 48 49 50
000
ASUS43 KIND 281159
RWRIN

WEATHER ROUNDUP FOR INDIANA
NATIONAL WEATHER SERVICE INDIANAPOLIS IN
800 AM EDT MON JUL 28 2014

NOTE: "FAIR" INDICATES FEW OR NO CLOUDS BELOW 12,000 FEET WITH NO
SIGNIFICANT WEATHER AND/OR OBSTRUCTIONS TO VISIBILITY.

* - STATION DOES NOT REPORT WEATHER SUCH AS PRECIPITATION OR FOG.

+ - STATION NOT QUALITY CONTROLLED BY THE NATIONAL WEATHER SERVICE.
    USE DATA WITH CAUTION...ESPECIALLY DEWPOINT AND RELATIVE
    HUMIDITY OBSERVATIONS.

INZ001>003-010>013-019-020-281300-
NORTHWEST INDIANA

CITY           SKY/WX    TMP DP  RH WIND       PRES   REMARKS
GARY /AIRPORT/ PTSUNNY   63  54  72 N17       30.00R
KNOX *+        CLOUDY    60  54  79 N13       29.96R
MONTICELLO +   CLOUDY    61  56  84 N10G18    29.96R
RENSSELAER +   PTSUNNY   63  55  77 NW9       29.99R
VALPARAISO     CLOUDY    60  54  80 N10       29.99R
6HR MIN TEMP:  60; 6HR MAX TEMP:  63;


$$

LMZ046-743>745-281300-
SOUTHERN LAKE MICHIGAN

STATION/POSITION TIME  TEMP WIND        PRES
                       AIR  DIR/SP/G
                 (UTC) (F)  (DEG/KT/KT) (MB)
MICHIGAN CITY    1100   61  330/ 28/ 32   N/A

$$

INZ004-005-014>016-021>024-281300-
NORTH CENTRAL INDIANA

CITY           SKY/WX    TMP DP  RH WIND       PRES   REMARKS
GOSHEN         CLOUDY    62  57  83 NW13      29.92R
6HR MIN TEMP:  62; 6HR MAX TEMP:  65;

SOUTH BEND     CLOUDY    61  54  77 N14       29.96R
6HR MIN TEMP:  60; 6HR MAX TEMP:  64;

WARSAW +       CLOUDY    61  57  88 NW13      29.93R

$$

INZ006>009-017-018-025>027-281300-
NORTHEAST INDIANA

CITY           SKY/WX    TMP DP  RH WIND       PRES   REMARKS
ANGOLA *+      CLOUDY    63  54  72 N8        29.89R
AUBURN +       MOSUNNY   64  57  77 NW10      29.89R
FORT WAYNE     PTSUNNY   64  59  83 NW9       29.90R
6HR MIN TEMP:  62; 6HR MAX TEMP:  64;


$$

INZ028-029-035-036-043>045-051>053-281300-
WEST CENTRAL INDIANA

CITY           SKY/WX    TMP DP  RH WIND       PRES   REMARKS
GREENCASTLE +  SUNNY     61  54  77 N9        29.98R
LAFAYETTE      SUNNY     61  54  77 NW9       29.96R
6HR MIN TEMP:  58; 6HR MAX TEMP:  65;

TERRE HAUTE    SUNNY     63  57  81 NW7       29.98R
6HR MIN TEMP:  61; 6HR MAX TEMP:  68;


$$

INZ030>032-037>040-046>048-054>057-064-065-281300-
CENTRAL INDIANA

CITY           SKY/WX    TMP DP  RH WIND       PRES   REMARKS
COLUMBUS       CLOUDY    63  59  88 NW8       29.94R
INDIANAPOLIS   CLOUDY    63  55  75 NW13      29.94R
6HR MIN TEMP:  63; 6HR MAX TEMP:  66;

-EAGLE CREEK   CLOUDY    63  55  75 NW13      29.94R
6HR MIN TEMP:  63; 6HR MAX TEMP:  67;

KOKOMO *+      CLOUDY    63  57  82 NW10      29.94R
MT COMFORT *+  CLOUDY    63  63 100 NW12      29.94R
SHELBYVILLE    CLOUDY    65  58  78 NW13      29.92R
6HR MIN TEMP:  64; 6HR MAX TEMP:  68;

ZIONSVILLE +   CLOUDY    63  55  77 NW8       29.96R
6HR MIN TEMP:  63; 6HR MAX TEMP:  64;


$$

INZ033-034-041-042-049-050-058-059-281300-
EAST CENTRAL INDIANA

CITY           SKY/WX    TMP DP  RH WIND       PRES   REMARKS
MUNCIE         CLOUDY    62  58  86 NW10      29.91S
6HR MIN TEMP:  61; 6HR MAX TEMP:  64;


$$

INZ060-061-067>069-081>083-085>088-281300-
SOUTHWEST INDIANA

CITY           SKY/WX    TMP DP  RH WIND       PRES   REMARKS
EVANSVILLE     SUNNY     66  59  78 NW8       29.99R
6HR MIN TEMP:  65; 6HR MAX TEMP:  71;


$$

INZ062-063-066-070>080-084-089>092-281300-
SOUTH CENTRAL AND SOUTHEAST INDIANA

CITY           SKY/WX    TMP DP  RH WIND       PRES   REMARKS
BLOOMINGTON    CLOUDY    63  57  81 VRB6      29.96R
6HR MIN TEMP:  62; 6HR MAX TEMP:  66;


$$



USA.gov is the U.S. government's official web portal to all federal, state and local government web resources and services.